PROMETHEUS 2-1

Last updated on Thu Nov 21 2024 00:03:39 GMT+0000 (Coordinated Universal Time)

1 41854U 16067G 24325.48211048 .00034476 00000+0 12590-2 0 9998 2 41854 98.0949 152.4907 0009143 242.7627 117.2679 15.28003776439501
UTC large
Height (km)
Speed (km/s)
/
Latitude / Longitude
Inclination (degrees)
Orbital Period (minutes)
Azimuth
Elevation
Range (km)
Doppler Factor

Next 0 passes for location: London (51.5072 / 0.1276)

Sorry there are no passes over London.